This is the latest recevied weather packets stored in our database for station/object WD4IXD. If no packets are shown the sender has not sent any weather packets the latest 10 day(s).
| Time | Temp. | Humidity | Pressure | Rain* | Wind** | Luminosity | Snow |
|---|---|---|---|---|---|---|---|
| 1777936515 | 17.78° C | 34% | 1010.9 hPa | 0 mm | - | 120 W/m² | - |
| 1777936204 | 17.78° C | 34% | 1010.7 hPa | 0 mm | - | 132 W/m² | - |
| 1777935915 | 17.78° C | 33% | 1010.7 hPa | 0 mm | - | 135 W/m² | - |
| 1777935604 | 17.78° C | 33% | 1010.5 hPa | 0 mm | - | 142 W/m² | - |
| 1777935304 | 17.78° C | 32% | 1010.5 hPa | 0 mm | - | 130 W/m² | - |
| 1777935015 | 18.33° C | 31% | 1010.4 hPa | 0 mm | - | 137 W/m² | - |
| 1777934703 | 18.33° C | 31% | 1010.4 hPa | 0 mm | - | 141 W/m² | - |
| 1777934415 | 18.33° C | 31% | 1010.5 hPa | 0 mm | - | 128 W/m² | - |
| 1777934115 | 18.89° C | 30% | 1010.4 hPa | 0 mm | - | 144 W/m² | - |
| 1777933803 | 19.44° C | 29% | 1010.3 hPa | 0 mm | - | 151 W/m² | - |
| 1777933515 | 20.56° C | 27% | 1010.3 hPa | 0 mm | - | 155 W/m² | - |
| 1777933204 | 21.67° C | 24% | 1010.2 hPa | 0 mm | - | 146 W/m² | - |
| 1777932915 | 22.22° C | 21% | 1010 hPa | 0 mm | - | 188 W/m² | - |
| 1777932615 | 22.22° C | 21% | 1010 hPa | 0 mm | - | 246 W/m² | - |
| 1777932304 | 22.78° C | 21% | 1010 hPa | 0 mm | - | 492 W/m² | - |
| 1777932015 | 22.78° C | 22% | 1010 hPa | 0 mm | - | 533 W/m² | - |
| 1777931704 | 22.78° C | 22% | 1010 hPa | 0 mm | - | 443 W/m² | - |
| 1777931415 | 22.78° C | 22% | 1010.1 hPa | 0 mm | - | 422 W/m² | - |
| 1777931104 | 22.78° C | 22% | 1010.1 hPa | 0 mm | - | 503 W/m² | - |
| 1777930815 | 22.22° C | 22% | 1010.1 hPa | 0 mm | - | 756 W/m² | - |
| 1777930503 | 22.22° C | 22% | 1010.1 hPa | 0 mm | - | 417 W/m² | - |
| 1777930215 | 22.22° C | 23% | 1010.2 hPa | 0 mm | - | 591 W/m² | - |
| 1777929904 | 22.22° C | 23% | 1010.2 hPa | 0 mm | - | 404 W/m² | - |
| 1777929614 | 22.22° C | 23% | 1010.3 hPa | 0 mm | - | 417 W/m² | - |
| 1777929304 | 22.22° C | 23% | 1010.3 hPa | 0 mm | - | 417 W/m² | - |
* Rain latest hour (hover to see other rain measurements)
** Current wind speed in m/s (hover to see current wind gust speed)